Year,Month,Day,Hour,Minute,Value (Times are PST for temperature in C)
2018,07,22,00,00,15.20
2018,07,22,00,01,15.20
2018,07,22,00,02,15.20
2018,07,22,00,03,15.20
2018,07,22,00,04,15.20
2018,07,22,00,05,15.10
2018,07,22,00,06,15.10
2018,07,22,00,07,15.00
2018,07,22,00,08,15.00
2018,07,22,00,09,14.90
2018,07,22,00,10,14.90
2018,07,22,00,11,14.90
2018,07,22,00,12,14.80
2018,07,22,00,13,14.80
2018,07,22,00,14,14.80
2018,07,22,00,15,14.80
2018,07,22,00,16,14.80
2018,07,22,00,17,14.80
2018,07,22,00,18,14.70
2018,07,22,00,19,14.70
2018,07,22,00,20,14.70
2018,07,22,00,21,14.70
2018,07,22,00,22,14.70
2018,07,22,00,23,14.70
2018,07,22,00,24,14.70
2018,07,22,00,25,14.70
2018,07,22,00,26,14.70
2018,07,22,00,27,14.70
2018,07,22,00,28,14.70
2018,07,22,00,29,14.70
2018,07,22,00,30,14.70
2018,07,22,00,31,14.70
2018,07,22,00,32,14.80
2018,07,22,00,33,14.80
2018,07,22,00,34,14.80
2018,07,22,00,35,14.80
2018,07,22,00,36,14.80
2018,07,22,00,37,14.80
2018,07,22,00,38,14.80
2018,07,22,00,39,14.80
2018,07,22,00,40,14.80
2018,07,22,00,41,14.80
2018,07,22,00,42,14.80
2018,07,22,00,43,14.80
2018,07,22,00,44,14.80
2018,07,22,00,45,14.80
2018,07,22,00,46,14.80
2018,07,22,00,47,14.80
2018,07,22,00,48,14.80
2018,07,22,00,49,14.80
2018,07,22,00,50,14.80
2018,07,22,00,51,14.80
2018,07,22,00,52,14.80
2018,07,22,00,53,14.80
2018,07,22,00,54,14.80
2018,07,22,00,55,14.80
2018,07,22,00,56,14.80
2018,07,22,00,57,14.80
2018,07,22,00,58,14.80
2018,07,22,00,59,14.70
2018,07,22,01,00,14.70
2018,07,22,01,01,14.70
2018,07,22,01,02,14.80
2018,07,22,01,03,14.80
2018,07,22,01,04,14.80
2018,07,22,01,05,14.90
2018,07,22,01,06,14.90
2018,07,22,01,07,14.90
2018,07,22,01,08,14.90
2018,07,22,01,09,14.90
2018,07,22,01,10,14.90
2018,07,22,01,11,14.90
2018,07,22,01,12,14.90
2018,07,22,01,13,14.90
2018,07,22,01,14,14.90
2018,07,22,01,15,14.90
2018,07,22,01,16,14.80
2018,07,22,01,17,14.80
2018,07,22,01,18,14.80
2018,07,22,01,19,14.80
2018,07,22,01,20,14.80
2018,07,22,01,21,14.70
2018,07,22,01,22,14.70
2018,07,22,01,23,14.70
2018,07,22,01,24,14.60
2018,07,22,01,25,14.60
2018,07,22,01,26,14.60
2018,07,22,01,27,14.60
2018,07,22,01,28,14.50
2018,07,22,01,29,14.50
2018,07,22,01,30,14.50
2018,07,22,01,31,14.50
2018,07,22,01,32,14.40
2018,07,22,01,33,14.40
2018,07,22,01,34,14.40
2018,07,22,01,35,14.30
2018,07,22,01,36,14.30
2018,07,22,01,37,14.30
2018,07,22,01,38,14.30
2018,07,22,01,39,14.30
2018,07,22,01,40,14.30
2018,07,22,01,41,14.30
2018,07,22,01,42,14.20
2018,07,22,01,43,14.20
2018,07,22,01,44,14.20
2018,07,22,01,45,14.20
2018,07,22,01,46,14.10
2018,07,22,01,47,14.10
2018,07,22,01,48,14.10
2018,07,22,01,49,14.00
2018,07,22,01,50,14.00
2018,07,22,01,51,14.00
2018,07,22,01,52,13.90
2018,07,22,01,53,13.90
2018,07,22,01,54,13.90
2018,07,22,01,55,13.90
2018,07,22,01,56,13.90
2018,07,22,01,57,13.80
2018,07,22,01,58,13.80
2018,07,22,01,59,13.80
2018,07,22,02,00,13.80
2018,07,22,02,01,13.80
2018,07,22,02,02,13.80
2018,07,22,02,03,13.80
2018,07,22,02,04,13.80
2018,07,22,02,05,13.70
2018,07,22,02,06,13.70
2018,07,22,02,07,13.70
2018,07,22,02,08,13.70
2018,07,22,02,09,13.70
2018,07,22,02,10,13.70
2018,07,22,02,11,13.70
2018,07,22,02,12,13.70
2018,07,22,02,13,13.70
2018,07,22,02,14,13.70
2018,07,22,02,15,13.70
2018,07,22,02,16,13.70
2018,07,22,02,17,13.70
2018,07,22,02,18,13.60
2018,07,22,02,19,13.60
2018,07,22,02,20,13.60
2018,07,22,02,21,13.60
2018,07,22,02,22,13.60
2018,07,22,02,23,13.50
2018,07,22,02,24,13.50
2018,07,22,02,25,13.40
2018,07,22,02,26,13.40
2018,07,22,02,27,13.40
2018,07,22,02,28,13.40
2018,07,22,02,29,13.30
2018,07,22,02,30,13.30
2018,07,22,02,31,13.30
2018,07,22,02,32,13.30
2018,07,22,02,33,13.30
2018,07,22,02,34,13.30
2018,07,22,02,35,13.30
2018,07,22,02,36,13.30
2018,07,22,02,37,13.30
2018,07,22,02,38,13.30
2018,07,22,02,39,13.30
2018,07,22,02,40,13.30
2018,07,22,02,41,13.30
2018,07,22,02,42,13.30
2018,07,22,02,43,13.30
2018,07,22,02,44,13.30
2018,07,22,02,45,13.30
2018,07,22,02,46,13.20
2018,07,22,02,47,13.20
2018,07,22,02,48,13.20
2018,07,22,02,49,13.20
2018,07,22,02,50,13.20
2018,07,22,02,51,13.10
2018,07,22,02,52,13.10
2018,07,22,02,53,13.10
2018,07,22,02,54,13.10
2018,07,22,02,55,13.10
2018,07,22,02,56,13.10
2018,07,22,02,57,13.00
2018,07,22,02,58,13.00
2018,07,22,02,59,13.00
2018,07,22,03,00,13.00
2018,07,22,03,01,13.00
2018,07,22,03,02,13.00
2018,07,22,03,03,13.00
2018,07,22,03,04,13.00
2018,07,22,03,05,13.00
2018,07,22,03,06,13.00
2018,07,22,03,07,13.00
2018,07,22,03,08,13.00
2018,07,22,03,09,13.00
2018,07,22,03,10,13.00
2018,07,22,03,11,13.00
2018,07,22,03,12,13.00
2018,07,22,03,13,13.00
2018,07,22,03,14,13.00
2018,07,22,03,15,13.00
2018,07,22,03,16,13.00
2018,07,22,03,17,13.00
2018,07,22,03,18,13.00
2018,07,22,03,19,13.00
2018,07,22,03,20,13.00
2018,07,22,03,21,13.00
2018,07,22,03,22,12.90
2018,07,22,03,23,12.90
2018,07,22,03,24,12.90
2018,07,22,03,25,12.90
2018,07,22,03,26,12.90
2018,07,22,03,27,12.90
2018,07,22,03,28,12.90
2018,07,22,03,29,12.90
2018,07,22,03,30,12.90
2018,07,22,03,31,12.90
2018,07,22,03,32,12.80
2018,07,22,03,33,12.80
2018,07,22,03,34,12.80
2018,07,22,03,35,12.80
2018,07,22,03,36,12.80
2018,07,22,03,37,12.80
2018,07,22,03,38,12.80
2018,07,22,03,39,12.80
2018,07,22,03,40,12.80
2018,07,22,03,41,12.80
2018,07,22,03,42,12.80
2018,07,22,03,43,12.80
2018,07,22,03,44,12.80
2018,07,22,03,45,12.80
2018,07,22,03,46,12.80
2018,07,22,03,47,12.80
2018,07,22,03,48,12.80
2018,07,22,03,49,12.80
2018,07,22,03,50,12.80
2018,07,22,03,51,12.80
2018,07,22,03,52,12.80
2018,07,22,03,53,12.80
2018,07,22,03,54,12.80
2018,07,22,03,55,12.80
2018,07,22,03,56,12.80
2018,07,22,03,57,12.70
2018,07,22,03,58,12.70
2018,07,22,03,59,12.70
2018,07,22,04,00,12.70
2018,07,22,04,01,12.70
2018,07,22,04,02,12.70
2018,07,22,04,03,12.70
2018,07,22,04,04,12.70
2018,07,22,04,05,12.70
2018,07,22,04,06,12.70
2018,07,22,04,07,12.70
2018,07,22,04,08,12.70
2018,07,22,04,09,12.70
2018,07,22,04,10,12.70
2018,07,22,04,11,12.70
2018,07,22,04,12,12.70
2018,07,22,04,13,12.70
2018,07,22,04,14,12.70
2018,07,22,04,15,12.70
2018,07,22,04,16,12.70
2018,07,22,04,17,12.70
2018,07,22,04,18,12.70
2018,07,22,04,19,12.70
2018,07,22,04,20,12.70
2018,07,22,04,21,12.70
2018,07,22,04,22,12.70
2018,07,22,04,23,12.70
2018,07,22,04,24,12.70
2018,07,22,04,25,12.70
2018,07,22,04,26,12.70
2018,07,22,04,27,12.70
2018,07,22,04,28,12.70
2018,07,22,04,29,12.70
2018,07,22,04,30,12.70
2018,07,22,04,31,12.70
2018,07,22,04,32,12.70
2018,07,22,04,33,12.70
2018,07,22,04,34,12.80
2018,07,22,04,35,12.80
2018,07,22,04,36,12.70
2018,07,22,04,37,12.70
2018,07,22,04,38,12.70
2018,07,22,04,39,12.70
2018,07,22,04,40,12.70
2018,07,22,04,41,12.70
2018,07,22,04,42,12.70
2018,07,22,04,43,12.70
2018,07,22,04,44,12.70
2018,07,22,04,45,12.70
2018,07,22,04,46,12.70
2018,07,22,04,47,12.70
2018,07,22,04,48,12.70
2018,07,22,04,49,12.70
2018,07,22,04,50,12.70
2018,07,22,04,51,12.70
2018,07,22,04,52,12.70
2018,07,22,04,53,12.70
2018,07,22,04,54,12.70
2018,07,22,04,55,12.70
2018,07,22,04,56,12.70
2018,07,22,04,57,12.70
2018,07,22,04,58,12.70
2018,07,22,04,59,12.70
2018,07,22,05,00,12.70
2018,07,22,05,01,12.70
2018,07,22,05,02,12.70
2018,07,22,05,03,12.70
2018,07,22,05,04,12.70
2018,07,22,05,05,12.70
2018,07,22,05,06,12.70
2018,07,22,05,07,12.70
2018,07,22,05,08,12.70
2018,07,22,05,09,12.70
2018,07,22,05,10,12.70
2018,07,22,05,11,12.70
2018,07,22,05,12,12.70
2018,07,22,05,13,12.70
2018,07,22,05,14,12.70
2018,07,22,05,15,12.70
2018,07,22,05,16,12.70
2018,07,22,05,17,12.70
2018,07,22,05,18,12.70
2018,07,22,05,19,12.70
2018,07,22,05,20,12.70
2018,07,22,05,21,12.70
2018,07,22,05,22,12.70
2018,07,22,05,23,12.70
2018,07,22,05,24,12.70
2018,07,22,05,25,12.70
2018,07,22,05,26,12.70
2018,07,22,05,27,12.60
2018,07,22,05,28,12.60
2018,07,22,05,29,12.60
2018,07,22,05,30,12.50
2018,07,22,05,31,12.50
2018,07,22,05,32,12.50
2018,07,22,05,33,12.50
2018,07,22,05,34,12.50
2018,07,22,05,35,12.40
2018,07,22,05,36,12.40
2018,07,22,05,37,12.40
2018,07,22,05,38,12.40
2018,07,22,05,39,12.40
2018,07,22,05,40,12.50
2018,07,22,05,41,12.50
2018,07,22,05,42,12.50
2018,07,22,05,43,12.50
2018,07,22,05,44,12.50
2018,07,22,05,45,12.50
2018,07,22,05,46,12.40
2018,07,22,05,47,12.40
2018,07,22,05,48,12.40
2018,07,22,05,49,12.30
2018,07,22,05,50,12.30
2018,07,22,05,51,12.30
2018,07,22,05,52,12.30
2018,07,22,05,53,12.20
2018,07,22,05,54,12.20
2018,07,22,05,55,12.20
2018,07,22,05,56,12.20
2018,07,22,05,57,12.20
2018,07,22,05,58,12.20
2018,07,22,05,59,12.20
2018,07,22,06,00,12.30
2018,07,22,06,01,12.30
2018,07,22,06,02,12.30
2018,07,22,06,03,12.30
2018,07,22,06,04,12.40
2018,07,22,06,05,12.40
2018,07,22,06,06,12.40
2018,07,22,06,07,12.40
2018,07,22,06,08,12.40
2018,07,22,06,09,12.50
2018,07,22,06,10,12.60
2018,07,22,06,11,12.60
2018,07,22,06,12,12.60
2018,07,22,06,13,12.70
2018,07,22,06,14,12.70
2018,07,22,06,15,12.70
2018,07,22,06,16,12.70
2018,07,22,06,17,12.80
2018,07,22,06,18,12.80
2018,07,22,06,19,12.90
2018,07,22,06,20,12.90
2018,07,22,06,21,12.90
2018,07,22,06,22,12.90
2018,07,22,06,23,13.00
2018,07,22,06,24,13.00
2018,07,22,06,25,13.10
2018,07,22,06,26,13.10
2018,07,22,06,27,13.10
2018,07,22,06,28,13.20
2018,07,22,06,29,13.20
2018,07,22,06,30,13.30
2018,07,22,06,31,13.30
2018,07,22,06,32,13.40
2018,07,22,06,33,13.40
2018,07,22,06,34,13.50
2018,07,22,06,35,13.50
2018,07,22,06,36,13.60
2018,07,22,06,37,13.60
2018,07,22,06,38,13.60
2018,07,22,06,39,13.70
2018,07,22,06,40,13.70
2018,07,22,06,41,13.70
2018,07,22,06,42,13.80
2018,07,22,06,43,13.90
2018,07,22,06,44,13.90
2018,07,22,06,45,14.00
2018,07,22,06,46,14.10
2018,07,22,06,47,14.20
2018,07,22,06,48,14.30
2018,07,22,06,49,14.30
2018,07,22,06,50,14.40
2018,07,22,06,51,14.40
2018,07,22,06,52,14.50
2018,07,22,06,53,14.60
2018,07,22,06,54,14.70
2018,07,22,06,55,14.80
2018,07,22,06,56,14.90
2018,07,22,06,57,15.00
2018,07,22,06,58,15.00
2018,07,22,06,59,15.00
2018,07,22,07,00,14.90
2018,07,22,07,01,14.90
2018,07,22,07,02,14.90
2018,07,22,07,03,14.90
2018,07,22,07,04,14.90
2018,07,22,07,05,14.90
2018,07,22,07,06,14.90
2018,07,22,07,07,14.90
2018,07,22,07,08,14.90
2018,07,22,07,09,15.00
2018,07,22,07,10,15.00
2018,07,22,07,11,15.10
2018,07,22,07,12,15.20
2018,07,22,07,13,15.30
2018,07,22,07,14,15.40
2018,07,22,07,15,15.40
2018,07,22,07,16,15.50
2018,07,22,07,17,15.60
2018,07,22,07,18,15.70
2018,07,22,07,19,15.70
2018,07,22,07,20,15.70
2018,07,22,07,21,15.80
2018,07,22,07,22,15.80
2018,07,22,07,23,15.90
2018,07,22,07,24,15.90
2018,07,22,07,25,16.00
2018,07,22,07,26,16.10
2018,07,22,07,27,16.20
2018,07,22,07,28,16.30
2018,07,22,07,29,16.40
2018,07,22,07,30,16.50
2018,07,22,07,31,16.50
2018,07,22,07,32,16.70
2018,07,22,07,33,16.80
2018,07,22,07,34,17.00
2018,07,22,07,35,17.10
2018,07,22,07,36,17.20
2018,07,22,07,37,17.40
2018,07,22,07,38,17.50
2018,07,22,07,39,17.50
2018,07,22,07,40,17.60
2018,07,22,07,41,17.70
2018,07,22,07,42,17.80
2018,07,22,07,43,17.90
2018,07,22,07,44,18.00
2018,07,22,07,45,18.10
2018,07,22,07,46,18.20
2018,07,22,07,47,18.20
2018,07,22,07,48,18.20
2018,07,22,07,49,18.30
2018,07,22,07,50,18.30
2018,07,22,07,51,18.30
2018,07,22,07,52,18.30
2018,07,22,07,53,18.30
2018,07,22,07,54,18.30
2018,07,22,07,55,18.30
2018,07,22,07,56,18.30
2018,07,22,07,57,18.30
2018,07,22,07,58,18.30
2018,07,22,07,59,18.30
2018,07,22,08,00,18.20
2018,07,22,08,01,18.20
2018,07,22,08,02,18.20
2018,07,22,08,03,18.20
2018,07,22,08,04,18.30
2018,07,22,08,05,18.30
2018,07,22,08,06,18.40
2018,07,22,08,07,18.50
2018,07,22,08,08,18.60
2018,07,22,08,09,18.70
2018,07,22,08,10,18.70
2018,07,22,08,11,18.70
2018,07,22,08,12,18.80
2018,07,22,08,13,18.80
2018,07,22,08,14,18.80
2018,07,22,08,15,18.90
2018,07,22,08,16,18.90
2018,07,22,08,17,19.00
2018,07,22,08,18,19.10
2018,07,22,08,19,19.10
2018,07,22,08,20,19.20
2018,07,22,08,21,19.20
2018,07,22,08,22,19.30
2018,07,22,08,23,19.40
2018,07,22,08,24,19.40
2018,07,22,08,25,19.40
2018,07,22,08,26,19.50
2018,07,22,08,27,19.50
2018,07,22,08,28,19.50
2018,07,22,08,29,19.60
2018,07,22,08,30,19.60
2018,07,22,08,31,19.70
2018,07,22,08,32,19.70
2018,07,22,08,33,19.80
2018,07,22,08,34,19.80
2018,07,22,08,35,19.80
2018,07,22,08,36,19.70
2018,07,22,08,37,19.70
2018,07,22,08,38,19.70
2018,07,22,08,39,19.80
2018,07,22,08,40,19.80
2018,07,22,08,41,19.90
2018,07,22,08,42,19.90
2018,07,22,08,43,20.00
2018,07,22,08,44,20.10
2018,07,22,08,45,20.20
2018,07,22,08,46,20.30
2018,07,22,08,47,20.30
2018,07,22,08,48,20.30
2018,07,22,08,49,20.30
2018,07,22,08,50,20.30
2018,07,22,08,51,20.30
2018,07,22,08,52,20.40
2018,07,22,08,53,20.40
2018,07,22,08,54,20.50
2018,07,22,08,55,20.60
2018,07,22,08,56,20.60
2018,07,22,08,57,20.60
2018,07,22,08,58,20.60
2018,07,22,08,59,20.70
2018,07,22,09,00,20.70
2018,07,22,09,01,20.70
2018,07,22,09,02,20.80
2018,07,22,09,03,20.90
2018,07,22,09,04,21.00
2018,07,22,09,05,21.10
2018,07,22,09,06,21.20
2018,07,22,09,07,21.20
2018,07,22,09,08,21.20
2018,07,22,09,09,21.20
2018,07,22,09,10,21.20
2018,07,22,09,11,21.20
2018,07,22,09,12,21.20
2018,07,22,09,13,21.30
2018,07,22,09,14,21.30
2018,07,22,09,15,21.30
2018,07,22,09,16,21.30
2018,07,22,09,17,21.30
2018,07,22,09,18,21.40
2018,07,22,09,19,21.40
2018,07,22,09,20,21.40
2018,07,22,09,21,21.40
2018,07,22,09,22,21.40
2018,07,22,09,23,21.30
2018,07,22,09,24,21.20
2018,07,22,09,25,21.10
2018,07,22,09,26,21.00
2018,07,22,09,27,20.90
2018,07,22,09,28,20.80
2018,07,22,09,29,20.80
2018,07,22,09,30,20.80
2018,07,22,09,31,20.90
2018,07,22,09,32,20.90
2018,07,22,09,33,21.00
2018,07,22,09,34,21.10
2018,07,22,09,35,21.10
2018,07,22,09,36,21.10
2018,07,22,09,37,21.10
2018,07,22,09,38,21.10
2018,07,22,09,39,21.10
2018,07,22,09,40,21.00
2018,07,22,09,41,21.00
2018,07,22,09,42,21.10
2018,07,22,09,43,21.20
2018,07,22,09,44,21.30
2018,07,22,09,45,21.40
2018,07,22,09,46,21.40
2018,07,22,09,47,21.50
2018,07,22,09,48,21.60
2018,07,22,09,49,21.50
2018,07,22,09,50,21.50
2018,07,22,09,51,21.40
2018,07,22,09,52,21.30
2018,07,22,09,53,21.10
2018,07,22,09,54,20.90
2018,07,22,09,55,20.90
2018,07,22,09,56,20.80
2018,07,22,09,57,20.90
2018,07,22,09,58,21.00
2018,07,22,09,59,21.10
2018,07,22,10,00,21.30
2018,07,22,10,01,21.40
2018,07,22,10,02,21.40
2018,07,22,10,03,21.30
2018,07,22,10,04,21.20
2018,07,22,10,05,21.20
2018,07,22,10,06,21.20
2018,07,22,10,07,21.20
2018,07,22,10,08,21.30
2018,07,22,10,09,21.40
2018,07,22,10,10,21.40
2018,07,22,10,11,21.40
2018,07,22,10,12,21.30
2018,07,22,10,13,21.30
2018,07,22,10,14,21.30
2018,07,22,10,15,21.30
2018,07,22,10,16,21.50
2018,07,22,10,17,21.60
2018,07,22,10,18,21.70
2018,07,22,10,19,21.90
2018,07,22,10,20,22.00
2018,07,22,10,21,22.20
2018,07,22,10,22,22.20
2018,07,22,10,23,22.20
2018,07,22,10,24,22.00
2018,07,22,10,25,21.90
2018,07,22,10,26,21.80
2018,07,22,10,27,21.80
2018,07,22,10,28,21.80
2018,07,22,10,29,21.80
2018,07,22,10,30,21.80
2018,07,22,10,31,21.80
2018,07,22,10,32,21.80
2018,07,22,10,33,21.70
2018,07,22,10,34,21.70
2018,07,22,10,35,21.80
2018,07,22,10,36,22.00
2018,07,22,10,37,22.10
2018,07,22,10,38,22.20
2018,07,22,10,39,22.20
2018,07,22,10,40,22.20
2018,07,22,10,41,22.30
2018,07,22,10,42,22.40
2018,07,22,10,43,22.60
2018,07,22,10,44,22.70
2018,07,22,10,45,22.70
2018,07,22,10,46,22.70
2018,07,22,10,47,22.70
2018,07,22,10,48,22.70
2018,07,22,10,49,22.60
2018,07,22,10,50,22.60
2018,07,22,10,51,22.70
2018,07,22,10,52,22.80
2018,07,22,10,53,22.80
2018,07,22,10,54,22.90
2018,07,22,10,55,23.00
2018,07,22,10,56,23.10
2018,07,22,10,57,23.20
2018,07,22,10,58,23.20
2018,07,22,10,59,23.10
2018,07,22,11,00,23.00
2018,07,22,11,01,23.10
2018,07,22,11,02,23.10
2018,07,22,11,03,23.20
2018,07,22,11,04,23.40
2018,07,22,11,05,23.50
2018,07,22,11,06,23.60
2018,07,22,11,07,23.60
2018,07,22,11,08,23.60
2018,07,22,11,09,23.60
2018,07,22,11,10,23.50
2018,07,22,11,11,23.40
2018,07,22,11,12,23.30
2018,07,22,11,13,23.20
2018,07,22,11,14,23.10
2018,07,22,11,15,22.90
2018,07,22,11,16,22.80
2018,07,22,11,17,22.70
2018,07,22,11,18,22.80
2018,07,22,11,19,22.80
2018,07,22,11,20,22.80
2018,07,22,11,21,22.70
2018,07,22,11,22,22.70
2018,07,22,11,23,22.70
2018,07,22,11,24,22.70
2018,07,22,11,25,22.70
2018,07,22,11,26,22.80
2018,07,22,11,27,22.90
2018,07,22,11,28,22.90
2018,07,22,11,29,23.00
2018,07,22,11,30,23.10
2018,07,22,11,31,23.10
2018,07,22,11,32,23.10
2018,07,22,11,33,23.10
2018,07,22,11,34,23.00
2018,07,22,11,35,23.00
2018,07,22,11,36,23.10
2018,07,22,11,37,23.00
2018,07,22,11,38,22.90
2018,07,22,11,39,22.80
2018,07,22,11,40,22.90
2018,07,22,11,41,23.10
2018,07,22,11,42,23.20
2018,07,22,11,43,23.30
2018,07,22,11,44,23.40
2018,07,22,11,45,23.40
2018,07,22,11,46,23.40
2018,07,22,11,47,23.50
2018,07,22,11,48,23.70
2018,07,22,11,49,23.80
2018,07,22,11,50,23.90
2018,07,22,11,51,24.10
2018,07,22,11,52,24.20
2018,07,22,11,53,24.30
2018,07,22,11,54,24.30
2018,07,22,11,55,24.10
2018,07,22,11,56,24.10
2018,07,22,11,57,24.00
2018,07,22,11,58,24.00
2018,07,22,11,59,24.00
2018,07,22,12,00,24.00
2018,07,22,12,01,24.00
2018,07,22,12,02,24.00
2018,07,22,12,03,24.00
2018,07,22,12,04,23.90
2018,07,22,12,05,23.80
2018,07,22,12,06,23.80
2018,07,22,12,07,23.90
2018,07,22,12,08,23.80
2018,07,22,12,09,23.90
2018,07,22,12,10,24.00
2018,07,22,12,11,24.10
2018,07,22,12,12,24.20
2018,07,22,12,13,24.30
2018,07,22,12,14,24.30
2018,07,22,12,15,24.40
2018,07,22,12,16,24.40
2018,07,22,12,17,24.50
2018,07,22,12,18,24.60
2018,07,22,12,19,24.70
2018,07,22,12,20,24.70
2018,07,22,12,21,24.80
2018,07,22,12,22,24.80
2018,07,22,12,23,24.80
2018,07,22,12,24,24.70
2018,07,22,12,25,24.60
2018,07,22,12,26,24.60
2018,07,22,12,27,24.60
2018,07,22,12,28,24.50
2018,07,22,12,29,24.40
2018,07,22,12,30,24.40
2018,07,22,12,31,24.40
2018,07,22,12,32,24.50
2018,07,22,12,33,24.50
2018,07,22,12,34,24.50
2018,07,22,12,35,24.40
2018,07,22,12,36,24.50
2018,07,22,12,37,24.60
2018,07,22,12,38,24.70
2018,07,22,12,39,24.60
2018,07,22,12,40,24.60
2018,07,22,12,41,24.70
2018,07,22,12,42,24.90
2018,07,22,12,43,24.90
2018,07,22,12,44,25.00
2018,07,22,12,45,25.10
2018,07,22,12,46,25.20
2018,07,22,12,47,25.30
2018,07,22,12,48,25.40
2018,07,22,12,49,25.50
2018,07,22,12,50,25.50
2018,07,22,12,51,25.50
2018,07,22,12,52,25.50
2018,07,22,12,53,25.40
2018,07,22,12,54,25.50
2018,07,22,12,55,25.50
2018,07,22,12,56,25.60
2018,07,22,12,57,25.70
2018,07,22,12,58,25.80
2018,07,22,12,59,25.90
2018,07,22,13,00,25.80
2018,07,22,13,01,25.80
2018,07,22,13,02,25.80
2018,07,22,13,03,25.80
2018,07,22,13,04,25.90
2018,07,22,13,05,25.80
2018,07,22,13,06,25.50
2018,07,22,13,07,25.40
2018,07,22,13,08,25.30
2018,07,22,13,09,25.20
2018,07,22,13,10,25.10
2018,07,22,13,11,25.20
2018,07,22,13,12,25.30
2018,07,22,13,13,25.40
2018,07,22,13,14,25.50
2018,07,22,13,15,25.60
2018,07,22,13,16,25.50
2018,07,22,13,17,25.40
2018,07,22,13,18,25.30
2018,07,22,13,19,25.20
2018,07,22,13,20,25.10
2018,07,22,13,21,24.90
2018,07,22,13,22,24.80
2018,07,22,13,23,24.70
2018,07,22,13,24,24.60
2018,07,22,13,25,24.60
2018,07,22,13,26,24.70
2018,07,22,13,27,24.60
2018,07,22,13,28,24.70
2018,07,22,13,29,24.60
2018,07,22,13,30,24.60
2018,07,22,13,31,24.60
2018,07,22,13,32,24.70
2018,07,22,13,33,24.90
2018,07,22,13,34,24.90
2018,07,22,13,35,25.00
2018,07,22,13,36,25.10
2018,07,22,13,37,25.20
2018,07,22,13,38,25.30
2018,07,22,13,39,25.40
2018,07,22,13,40,25.50
2018,07,22,13,41,25.60
2018,07,22,13,42,25.50
2018,07,22,13,43,25.40
2018,07,22,13,44,25.30
2018,07,22,13,45,25.20
2018,07,22,13,46,25.20
2018,07,22,13,47,25.30
2018,07,22,13,48,25.30
2018,07,22,13,49,25.30
2018,07,22,13,50,25.10
2018,07,22,13,51,25.00
2018,07,22,13,52,24.90
2018,07,22,13,53,24.90
2018,07,22,13,54,24.80
2018,07,22,13,55,24.80
2018,07,22,13,56,24.90
2018,07,22,13,57,25.00
2018,07,22,13,58,25.20
2018,07,22,13,59,25.40
2018,07,22,14,00,25.50
2018,07,22,14,01,25.50
2018,07,22,14,02,25.40
2018,07,22,14,03,25.40
2018,07,22,14,04,25.20
2018,07,22,14,05,25.00
2018,07,22,14,06,24.90
2018,07,22,14,07,24.80
2018,07,22,14,08,24.90
2018,07,22,14,09,25.00
2018,07,22,14,10,25.00
2018,07,22,14,11,25.00
2018,07,22,14,12,25.00
2018,07,22,14,13,25.00
2018,07,22,14,14,25.00
2018,07,22,14,15,25.00
2018,07,22,14,16,25.10
2018,07,22,14,17,25.20
2018,07,22,14,18,25.30
2018,07,22,14,19,25.30
2018,07,22,14,20,25.20
2018,07,22,14,21,25.20
2018,07,22,14,22,25.20
2018,07,22,14,23,25.20
2018,07,22,14,24,25.30
2018,07,22,14,25,25.30
2018,07,22,14,26,25.30
2018,07,22,14,27,25.50
2018,07,22,14,28,25.50
2018,07,22,14,29,25.60
2018,07,22,14,30,25.50
2018,07,22,14,31,25.40
2018,07,22,14,32,25.40
2018,07,22,14,33,25.30
2018,07,22,14,34,25.30
2018,07,22,14,35,25.40
2018,07,22,14,36,25.40
2018,07,22,14,37,25.30
2018,07,22,14,38,25.40
2018,07,22,14,39,25.50
2018,07,22,14,40,25.70
2018,07,22,14,41,25.80
2018,07,22,14,42,25.80
2018,07,22,14,43,25.70
2018,07,22,14,44,25.70
2018,07,22,14,45,25.70
2018,07,22,14,46,25.70
2018,07,22,14,47,26.00
2018,07,22,14,48,26.20
2018,07,22,14,49,26.30
2018,07,22,14,50,26.40
2018,07,22,14,51,26.60
2018,07,22,14,52,26.70
2018,07,22,14,53,26.70
2018,07,22,14,54,26.80
2018,07,22,14,55,26.90
2018,07,22,14,56,26.90
2018,07,22,14,57,26.90
2018,07,22,14,58,26.90
2018,07,22,14,59,26.90
2018,07,22,15,00,26.90
2018,07,22,15,01,26.80
2018,07,22,15,02,26.80
2018,07,22,15,03,26.90
2018,07,22,15,04,27.00
2018,07,22,15,05,27.20
2018,07,22,15,06,27.40
2018,07,22,15,07,27.60
2018,07,22,15,08,27.60
2018,07,22,15,09,27.70
2018,07,22,15,10,27.60
2018,07,22,15,11,27.70
2018,07,22,15,12,27.70
2018,07,22,15,13,27.70
2018,07,22,15,14,27.80
2018,07,22,15,15,27.80
2018,07,22,15,16,27.90
2018,07,22,15,17,27.90
2018,07,22,15,18,27.90
2018,07,22,15,19,27.90
2018,07,22,15,20,27.90
2018,07,22,15,21,27.90
2018,07,22,15,22,27.90
2018,07,22,15,23,28.00
2018,07,22,15,24,28.10
2018,07,22,15,25,28.30
2018,07,22,15,26,28.40
2018,07,22,15,27,28.40
2018,07,22,15,28,28.20
2018,07,22,15,29,28.20
2018,07,22,15,30,28.30
2018,07,22,15,31,28.30
2018,07,22,15,32,28.30
2018,07,22,15,33,28.20
2018,07,22,15,34,28.20
2018,07,22,15,35,28.30
2018,07,22,15,36,28.30
2018,07,22,15,37,28.30
2018,07,22,15,38,28.40
2018,07,22,15,39,28.40
2018,07,22,15,40,28.40
2018,07,22,15,41,28.30
2018,07,22,15,42,28.20
2018,07,22,15,43,27.80
2018,07,22,15,44,27.50
2018,07,22,15,45,27.20
2018,07,22,15,46,26.90
2018,07,22,15,47,26.70
2018,07,22,15,48,26.40
2018,07,22,15,49,26.20
2018,07,22,15,50,25.90
2018,07,22,15,51,25.70
2018,07,22,15,52,25.70
2018,07,22,15,53,25.70
2018,07,22,15,54,25.70
2018,07,22,15,55,25.70
2018,07,22,15,56,25.70
2018,07,22,15,57,25.70
2018,07,22,15,58,25.50
2018,07,22,15,59,25.60
2018,07,22,16,00,25.60
2018,07,22,16,01,25.50
2018,07,22,16,02,25.40
2018,07,22,16,03,25.30
2018,07,22,16,04,25.30
2018,07,22,16,05,25.30
2018,07,22,16,06,25.30
2018,07,22,16,07,25.20
2018,07,22,16,08,25.10
2018,07,22,16,09,25.20
2018,07,22,16,10,25.20
2018,07,22,16,11,25.20
2018,07,22,16,12,25.40
2018,07,22,16,13,25.50
2018,07,22,16,14,25.70
2018,07,22,16,15,25.70
2018,07,22,16,16,25.70
2018,07,22,16,17,25.70
2018,07,22,16,18,25.70
2018,07,22,16,19,25.80
2018,07,22,16,20,25.90
2018,07,22,16,21,26.00
2018,07,22,16,22,26.10
2018,07,22,16,23,26.20
2018,07,22,16,24,26.20
2018,07,22,16,25,26.30
2018,07,22,16,26,26.40
2018,07,22,16,27,26.40
2018,07,22,16,28,26.40
2018,07,22,16,29,26.40
2018,07,22,16,30,26.40
2018,07,22,16,31,26.50
2018,07,22,16,32,26.60
2018,07,22,16,33,26.70
2018,07,22,16,34,26.90
2018,07,22,16,35,27.10
2018,07,22,16,36,27.30
2018,07,22,16,37,27.40
2018,07,22,16,38,27.50
2018,07,22,16,39,27.60
2018,07,22,16,40,27.70
2018,07,22,16,41,27.80
2018,07,22,16,42,27.80
2018,07,22,16,43,27.60
2018,07,22,16,44,27.60
2018,07,22,16,45,27.60
2018,07,22,16,46,27.50
2018,07,22,16,47,27.30
2018,07,22,16,48,27.10
2018,07,22,16,49,27.00
2018,07,22,16,50,26.90
2018,07,22,16,51,26.80
2018,07,22,16,52,26.80
2018,07,22,16,53,26.80
2018,07,22,16,54,26.80
2018,07,22,16,55,26.80
2018,07,22,16,56,26.80
2018,07,22,16,57,26.90
2018,07,22,16,58,26.90
2018,07,22,16,59,26.90
2018,07,22,17,00,26.80
2018,07,22,17,01,26.90
2018,07,22,17,02,26.90
2018,07,22,17,03,26.80
2018,07,22,17,04,26.70
2018,07,22,17,05,26.60
2018,07,22,17,06,26.50
2018,07,22,17,07,26.50
2018,07,22,17,08,26.30
2018,07,22,17,09,26.30
2018,07,22,17,10,26.20
2018,07,22,17,11,26.20
2018,07,22,17,12,26.20
2018,07,22,17,13,26.10
2018,07,22,17,14,26.00
2018,07,22,17,15,25.90
2018,07,22,17,16,25.90
2018,07,22,17,17,25.90
2018,07,22,17,18,25.80
2018,07,22,17,19,25.60